Location: Newark
(34.1765°N, 84.7452°W)
Time: 00:21:38
(UTC+00:00)

LightSail 2 - Visible Passes

Search period start: 08 December 2019 00:00
Search period end: 18 December 2019 00:00
Orbit: 696 x 730 km, 24.0° (Epoch: 07 December)

Date Brightness Start Highest point End Pass type
(mag) Time Alt. Az. Time Alt. Az. Time Alt. Az.
08 Dec 7.9 01:36:27 10° SW 01:36:58 11° SW 01:36:58 11° SW visible
08 Dec 7.1 22:51:39 10° WSW 22:55:53 25° S 23:00:04 10° SE visible
09 Dec 7.4 00:37:41 10° SW 00:40:47 16° SSW 00:42:47 13° S visible
09 Dec 7.4 23:39:14 10° WSW 23:42:52 19° SSW 23:46:29 10° SSE visible
11 Dec 7.8 00:28:15 10° SW 00:29:46 11° SSW 00:31:16 10° S visible
11 Dec 7.7 23:29:03 10° SW 23:31:51 14° SSW 23:34:36 10° SSE visible
